Regional Weather Roundup
Issued by NWS Goodland, KS

Home | Current Version | Previous Version | Text Only | Print | Product List | Glossary Off
Versions: 1 2 3 4 5 6 7 8 9 10 11 12 13 14 15 16 17 18 19 20 21 22 23 24 25 26 27 28 29 30 31 32 33 34 35 36 37 38 39 40 41 42 43 44 45 46 47 48 49 50

000
ASUS43 KGLD 191359
RWRGLD

GOODLAND FORECAST AREA HOURLY WEATHER ROUNDUP
NATIONAL WEATHER SERVICE GOODLAND KS
800 AM MDT THU OCT 19 2017

...OFFICIAL OBSERVATIONS...

CITY           SKY/WX    TMP DP  RH WIND       PRES   REMARKS
GOODLAND KS    CLOUDY    44  38  79 SW3       30.07S
HILL CITY KS   SUNNY     44  39  82 W3        30.07R HAZE
IMPERIAL NEB   CLOUDY    38  32  79 SW3       30.06S
MCCOOK NEB     CLOUDY    40  37  89 CALM      30.06S
AKRON CO       CLOUDY    46  30  53 SW10      30.06S
BURLINGTON CO  CLOUDY    44  37  76 S3        30.08S
LIMON CO       CLOUDY    35  30  82 N3        30.11S
$$

...UNOFFICIAL OBSERVATIONS...

CITY           SKY/WX    TMP DP  RH WIND       PRES   REMARKS
LENORA KS        N/A     45  32  60 MISG        N/A
NORTON KS      SUNNY     37  32  81 W3        30.05S
SHARON SPRINGS   N/A     40  35  84 CALM        N/A
TRENTON NEB      N/A     45  32  60 CALM        N/A
YUMA CO        FAIR      37  32  81 W3        30.06F
$$




USA.gov is the U.S. government's official web portal to all federal, state and local government web resources and services.